www.pogodaiklimat.ru

Погода и климат >> Архив погоды >> Индия >> Бихар >> Патна


ПОГОДА в Патне

  • Прогноз погоды в Патне
  • Монитор погоды в Патне

АРХИВ ПОГОДЫ в Патне

Время (UTC), дата Ветер
(напр.,м/с)
 
Видим.   Явления Облачность Т
(С)
Тd
(С)
f
(%)
Тe
(С)
Тes
(С)
Комфортность P
(гПа)
Po
(гПа)
Тmin
(С)
Tmax
(С)
R
(мм)
R24
(мм)
S
(см)
00 18.06 З 1 2000 м мгла {дождь} 8/4 600 м
[St Ac trans]
+29.4 +23.0 68 +39 +39 очень
душно
998.1 991.4 797
03 18.06 З 1 4000 м мгла 6/5 600 м
[Sc Ac trans]
+32.2 +23.9 62 +44 +50 опасность
перегрева
999.4 992.7 +25.6 7
06 18.06 З 3 4000 м мгла 4/4 600 м
[Sc]
+36.6 +27.8 61 +57 +67 опасность
перегрева
999.3 992.7
09 18.06 З 4 4000 м мгла 3/3 750 м
[Cu hum As trans]
+40.2 +20.9 33 +46 +53 опасность
перегрева
997.0 990.5
12 18.06 З 4 4000 м мгла 3/3 750 м
[Cu hum]
+38.8 +19.8 33 +44 +44 опасность
перегрева
995.2 988.7 +41.4
15 18.06 З 2 4000 м мгла 3/3 600 м
[Sc]
+36.2 +21.2 42 +44 +44 опасность
перегрева
997.6 991.0
18 18.06 штиль 0 4000 м мгла ясно +32.8 +25.5 66 +48 +48 опасность
перегрева
999.2 992.5
21 18.06 В 2 4000 м мгла ясно +31.4 +26.1 74 +47 +47 опасность
перегрева
998.5 991.8
00 19.06 В 1 4000 м мгла 3/0
[Ci fib]
+30.2 +26.0 78 +45 +46 опасность
перегрева
998.2 991.5
03 19.06 В 1 4000 м мгла ясно +34.0 +26.8 66 +51 +65 опасность
перегрева
1000.0 993.3 +29.8
06 19.06 С 1 4000 м мгла 6/4 750 м
[Cu med, cong Ac trans]
+39.6 +21.6 36 +47 +59 опасность
перегрева
999.1 992.6
09 19.06 В 2 4000 м мгла 5/3 600 м
[Sc Ac trans]
+40.8 +19.8 30 +46 +54 опасность
перегрева
996.9 990.4
12 19.06 В 2 4000 м мгла 6/3 600 м
[Sc Ac trans]
+35.8 +21.8 44 +44 +44 опасность
перегрева
996.8 990.2 +41.6
15 19.06 СЗ 2 4000 м мгла 6/4 600 м
[Sc Ac trans]
+34.8 +22.0 47 +43 +43 опасность
перегрева
999.2 992.6
18 19.06 С 2 4000 м мгла 6/4 600 м
[Sc Ac trans]
+33.6 +23.6 56 +45 +45 опасность
перегрева
1000.2 993.5
21 19.06 С 3 4000 м мгла 6/4 600 м
[Sc Ac trans]
+31.4 +25.2 70 +45 +45 опасность
перегрева
1000.0 993.3
00 20.06 СВ 2 2000 м мгла 8/4 600 м
[Sc Ac trans]
+31.4 +22.7 60 +41 +41 опасность
перегрева
1000.2 993.5
03 20.06 В 2 2000 м мгла 8/4 600 м
[Sc Ac trans]
+33.2 +23.8 58 +45 +49 опасность
перегрева
1001.1 994.4 +31.0
06 20.06 В 2 4000 м мгла 6/4 600 м
[Sc Ac trans]
+37.4 +24.1 47 +49 +60 опасность
перегрева
1000.9 994.3
09 20.06 В 3 4000 м мгла 5/3 600 м
[Sc Ac trans]
+39.4 +22.5 38 +48 +55 опасность
перегрева
998.1 991.6
12 20.06 Ю 3 4000 м мгла 8/4 600 м
[Sc Ac trans]
+35.4 +24.0 52 +47 +48 опасность
перегрева
997.6 991.0 +40.2
15 20.06 штиль 0 4000 м мгла 4/0
[Ac trans]
+32.4 +23.8 61 +44 +44 опасность
перегрева
999.3 992.6
18 20.06 штиль 0 4000 м мгла 4/0
[Ac trans]
+31.2 +24.3 67 +43 +43 опасность
перегрева
1001.4 994.7
21 20.06 В 1 4000 м мгла 3/0
[Ac trans]
+30.6 +24.3 69 +43 +43 опасность
перегрева
1000.7 994.0
00 21.06 штиль 0 4000 м мгла 6/3 600 м
[Sc diur, vesp Ac trans]
+30.0 +25.5 77 +44 +44 опасность
перегрева
1000.3 993.6
03 21.06 В 2 4000 м мгла 9/4 600 м
[Sc Ac trans]
+33.6 +25.5 63 +48 +52 опасность
перегрева
1001.9 995.2 +29.6
06 21.06 ЮВ 3 4000 м мгла 9/5 600 м
[Sc diur, vesp Ac trans]
+37.0 +24.6 49 +49 +55 опасность
перегрева
1000.6 994.0
09 21.06 ЮВ 3 4000 м мгла 9/5 600 м
[Sc diur, vesp Ac trans]
+37.0 +24.6 49 +49 +53 опасность
перегрева
1000.6 994.0
12 21.06 ЮЗ 3 4000 м мгла {гроза, дождь} 8/6 540 м
[Cb calv Ac trans]
+30.2 +25.8 77 +45 +45 опасность
перегрева
998.3 991.6 +41.2 2
15 21.06 В 1 4000 м мгла 8/4 540 м
[Sc Ac trans]
+31.6 +26.3 74 +48 +48 опасность
перегрева
999.8 993.1 2
18 21.06 В 3 2000 м мгла 8/4 540 м
[Sc Ac trans]
+31.0 +26.0 75 +46 +46 опасность
перегрева
1001.4 994.7 2
21 21.06 В 3 2000 м мгла 8/4 540 м
[Sc Ac trans]
+30.0 +26.1 80 +45 +45 опасность
перегрева
1000.1 993.4 4
00 22.06 В 3 2000 м в посл. час дождь 9/5 300 м
[Frnb Ac trans]
+29.0 +26.5 86 +44 +45 опасность
перегрева
1000.8 994.0 4
03 22.06 В 7 4000 м слаб. морось 9/5 540 м
[Sc Ac trans]
+30.0 +26.4 81 +46 +47 опасность
перегрева
1001.9 995.1 +28.8 4
06 22.06 В 4 2000 м слаб. дождь {морось} 9/6 450 м
[Cb calv Ac trans]
+26.4 +26.4 100 +40 +43 очень
душно
1001.4 994.6 13
09 22.06 СВ 2 2000 м гроза без осадков 9/6 540 м
[Cb calv Ac trans]
+28.2 +27.1 94 +45 +48 опасность
перегрева
1000.3 993.5 32
12 22.06 В 1 2000 м слаб. дождь {гроза} 10/8 450 м
[Cb calv Ac trans]
+28.2 +26.2 89 +43 +43 опасность
перегрева
1000.4 993.6 +32.4 33
15 22.06 В 2 2000 м в посл. час дождь 9/5 300 м
[St Ac trans]
+27.4 +26.6 95 +42 +42 опасность
перегрева
1000.7 993.9 31
18 22.06 В 3 2000 м мгла {дождь} 9/5 300 м
[St Ac trans]
+27.8 +26.7 94 +43 +43 опасность
перегрева
1001.5 994.7 31
21 22.06 В 3 2000 м мгла 9/5 540 м
[Sc Ac trans]
+27.6 +26.5 94 +42 +42 опасность
перегрева
1000.8 994.0 31
00 23.06 В 3 2000 м мгла 9/5 360 м
[St Ac trans]
+27.8 +26.7 94 +43 +43 опасность
перегрева
1001.6 994.8 31
03 23.06 В 1 4000 м мгла 5/3 540 м
[Sc Ac trans]
+30.6 +26.1 77 +46 +54 опасность
перегрева
1002.3 995.6 +27.0 31
06 23.06 В 2 4000 м мгла 6/5 540 м
[Sc diur, vesp Ac trans]
+34.4 +26.7 64 +52 +62 опасность
перегрева
1002.0 995.3
09 23.06 В 3 4000 м мгла 6/6 540 м
[Sc diur, vesp]
+36.2 +25.3 54 +50 +55 опасность
перегрева
1000.4 993.8
12 23.06 В 2 4000 м мгла 5/5 540 м
[Sc]
+36.2 +24.3 51 +49 +49 опасность
перегрева
999.3 992.7 +37.2
15 23.06 В 4 4000 м мгла 5/3 600 м
[Sc Ac trans]
+33.4 +25.2 62 +47 +47 опасность
перегрева
1001.3 994.6
18 23.06 В 3 4000 м мгла 3/0
[Ac trans]
+31.4 +23.9 64 +43 +43 опасность
перегрева
1001.6 994.9
21 23.06 ЮВ 2 2000 м мгла 3/0
[Ac trans]
+30.0 +24.6 73 +43 +43 опасность
перегрева
1001.7 994.9
00 24.06 Ю 2 2000 м мгла 8/3 600 м
[Sc Ac trans Ci fib]
+29.2 +25.2 79 +42 +43 опасность
перегрева
1002.8 996.0
03 24.06 Ю 2 4000 м мгла 8/4 540 м
[Sc Ac trans]
+32.2 +26.1 70 +48 +52 опасность
перегрева
1004.2 997.5 +30.0
06 24.06 В 2 4000 м мгла 6/6 540 м
[Sc diur, vesp]
+36.2 +25.3 54 +50 +60 опасность
перегрева
1003.5 996.9
09 24.06 В 2 4000 м мгла 6/5 540 м
[Sc diur, vesp Ac trans]
+38.2 +24.1 45 +50 +56 опасность
перегрева
1000.6 994.0
12 24.06 В 2 4000 м мгла 6/5 450 м
[Sc diur, vesp Ac trans]
+38.0 +24.2 46 +50 +50 опасность
перегрева
998.8 992.2 +39.4
15 24.06 штиль 0 4000 м мгла 3/3 600 м
[Sc Ac trans]
+35.4 +25.6 57 +50 +50 опасность
перегрева
1000.1 993.5
18 24.06 штиль 0 4000 м мгла 3/3 600 м
[Sc Ac trans]
+33.6 +26.1 65 +50 +50 опасность
перегрева
1001.6 994.9
21 24.06 штиль 0 4000 м мгла 3/3 600 м
[Sc Ac trans]
+32.4 +27.5 75 +51 +51 опасность
перегрева
1000.7 994.0

 

Местоположение метеостанции Патна (Бихар, Индия): широта 25.60 долгота 85.10 высота над уровнем моря 60 м.

В архиве по умолчанию представлена погода в Патне за последнюю неделю. Архивные данные за месяц целиком и за предыдущие месяцы, начиная с января 2011 года, Вы можете получить, выбрав интересующий диапазон дат из раскрывающегося списка и нажав кнопку "Ввод!".


*Определитесь, кто Вы:
робот инопланетянин человек

Внимание! Время в таблицах - всемирное. Для получения местного времени необходимо прибавить поправку, которая равна 5.5 ч.

Смотрите также архив погоды в соседних городах и на ближайших метеорологических станциях:

Погода в Чхапре (Бихар, Индия) (42 км)
Погода в Гае (Бихар, Индия) (96 км)
Погода в Дехри (Бихар, Индия) (120 км)
Погода в Гхазипуре (Уттар-Прадеш, Индия) (157 км)
Погода в Симаре (Непал) (174 км)
Погода в Бхагалпуре (Бихар, Индия) (190 км)
Погода в Далтонгандже (Джаркханд, Индия) (201 км)
Погода в Варанаси (Уттар-Прадеш, Индия) (212 км)
Погода в Горакпуре (Уттар-Прадеш, Индия) (215 км)
Погода в Варанаси аэропорту (Уттар-Прадеш, Индия) (225 км)

Пояснения к столбцам:

Ветер - указаны скорость ветра в м/с - средняя за 10 мин, порывы в срок и между сроками (в фигурных скобках) и направление, откуда дует ветер: С - северный, СВ - северо-восточный, В - восточный, ЮВ - юго-восточный, Ю - южный, ЮЗ - юго-западный, З - западный, СЗ - северо-западный.
Видимость - горизонтальная дальность видимости в метрах или километрах. При видимости от 1 до 10 км при отсутствии осадков обычно наблюдается дымка, при ухудшении видимости до 1 км и менее - туман. В сухую погоду видимость может ухудшаться дымом, пылью или мглою.
Явления - указаны атмосферные явления, наблюдавшиеся в срок или в последний час перед сроком; фигурными скобками обозначены явления, наблюдавшиеся между сроками (за 1-3 часа до срока); квадратными скобками обозначены град или гололедные отложения с указанием их диаметра в мм.
Облачность - указаны через наклонную черту общая и нижняя облачность в баллах и высота нижней границы облаков в метрах; квадратными скобками обозначены формы облаков: Ci - перистые, Cs - перисто-слоистые, Cc - перисто-кучевые, Ac - высококучевые, As - высокослоистые, Sc - слоисто-кучевые, Ns - слоисто-дождевые, Cu - кучевые, Cb - кучево-дождевые. Подробнее классификацию облаков см. в Атласе облаков (PDF).
T - Температура воздуха - температура, измеренная на высоте 2 м над землей.
Td - Температура точки росы - температура, при понижении до которой содержащийся в воздухе водяной пар достигнет насыщения.
f - Относительная влажность воздуха - влажноcть воздуха, измеренная на высоте 2 м над землей.
Te - Эффективная температура - температура, которую ощущает одетый по сезону человек в тени. Характеристика душности погоды. При расчете учитывается влияние влажности воздуха и скорости ветра на теплоощущения человека.
Tes - Эффективная температура на солнце - температура, которую ощущает человек, с поправкой на солнечный нагрев. Характеристика знойности погоды. Зависит от высоты солнца над горизонтом, облачности и скорости ветра. Ночью, в пасмурную погоду, а также при ветре 12 м/с и более поправка равна нулю.
P - Атмосферное давление - приведенное к уровню моря атмосферное давление.
Po - Атмосферное давление - измеренное на уровне метеостанции атмосферное давление.
Tmin - Минимальная температура - минимум температуры воздуха на высоте 2 м над землей.
Tmax - Максимальная температура - максимум температуры воздуха на высоте 2 м над землей.
R - Количество осадков - Количество выпавших осадков за период времени, мм. При наведении курсора мыши на число - период времени, за который выпало указанное количество осадков.
R24 - Количество осадков - Количество выпавших осадков за 24 часа, мм.
S - Снежный покров - Высота снежного покрова, см. При наведении курсора мыши на число - состояние снежного покрова и степень покрытия местности в баллах.